RH
10 9 8 8 7 7 7 8 8 8 9 9 10 10 11 11 12 12 12 12 12 12 13 13 12 11 10 9 8 8 8 8 7 6 6 6 5 6 5 5 5 5 6 5 5 5 6 8 8 8 8 8 9 9 9 9 9 9 9 9 9 8 8 9 9 12 15 15 14 16 16 16 20 24 29 32 27 24 26 26 23 22 21 18 16 17 18 16
7 6 6 6 5 5 5 5 5 5 6 6 7 7 8 9 10 10 11 12 12 12 12 12 11 10 8 7 7 7 8 8 7 7 6 6 5 6 5 6 6 5 6 5 5 5 6 7 8 8 9 9 9 9 9 9 9 9 9 9 9 8 9 9 10 12 15 15 14 14 15 14 15 19 26 23 22 26 24 21 20 17 14 14 13 14 16 15
6 5 5 5 5 4 4 4 4 4 4 4 4 5 6 6 7 8 9 9 10 10 10 10 9 8 7 6 7 7 8 8 7 7 6 6 6 5 6 6 5 5 6 6 5 5 6 7 8 9 9 9 9 10 10 10 10 9 9 8 8 9 9 9 10 14 16 15 14 14 13 15 13 17 25 21 21 25 20 17 16 14 12 12 12 12 15 15
6 5 5 5 5 5 4 4 4 4 3 3 3 3 4 4 5 5 6 7 7 8 8 7 7 6 6 7 7 8 8 7 7 7 7 7 7 7 6 6 6 6 6 6 6 5 6 7 8 9 9 10 9 10 10 11 10 9 9 8 8 9 9 10 11 15 17 15 14 13 13 14 13 17 22 18 18 19 14 14 14 12 12 12 12 14 16 20
6 6 6 6 5 5 5 4 4 4 4 3 3 3 4 4 4 4 4 5 5 5 5 5 6 6 6 7 7 9 8 8 11 13 13 14 13 12 11 10 8 6 6 6 6 6 6 7 8 9 10 10 10 10 10 11 11 10 9 8 8 9 9 9 12 15 16 16 15 13 13 14 13 15 16 14 15 14 12 13 13 12 12 12 13 16 20 23
6 6 6 6 6 6 5 5 4 4 4 3 3 4 5 5 5 5 5 5 5 5 6 6 6 6 7 8 9 9 7 11 18 21 21 21 21 20 19 16 12 8 6 6 6 6 6 7 7 9 10 10 11 10 11 11 11 11 10 9 9 9 9 10 12 14 15 15 15 14 13 13 13 13 13 13 13 12 13 12 12 12 12 12 12 17 21 22
6 6 6 6 6 6 5 5 4 4 4 4 4 4 5 6 7 7 7 7 7 7 8 8 8 7 8 9 10 9 8 9 14 18 20 22 25 27 26 22 18 12 8 6 7 7 6 7 8 9 10 11 11 11 11 11 11 11 10 11 11 9 8 10 13 14 14 14 15 15 13 13 13 13 13 13 12 12 12 12 12 12 12 11 12 19 20 21
6 6 6 6 6 6 5 5 4 4 4 4 4 4 5 7 8 9 9 9 10 9 10 10 10 10 11 11 10 9 9 7 8 10 13 16 20 25 27 25 20 15 10 7 7 7 7 7 8 9 10 11 12 11 12 12 11 9 10 12 12 11 9 11 14 15 14 14 16 15 13 13 13 13 13 12 12 12 12 12 12 11 11 10 15 21 20 22
7 6 6 6 5 5 5 5 4 4 4 4 4 4 4 6 9 12 13 13 13 13 13 13 13 13 12 11 10 9 8 7 7 8 9 10 12 15 19 18 16 14 12 8 7 7 7 7 9 10 11 12 12 12 13 13 13 9 10 12 13 12 10 10 14 17 16 14 16 15 14 14 13 13 13 12 12 11 12 11 11 11 10 14 21 22 20 26
6 6 6 5 5 5 5 5 4 4 4 4 4 4 4 5 7 12 15 16 17 17 17 17 16 15 13 12 11 10 9 9 8 8 9 10 12 14 13 13 12 12 12 9 7 7 7 9 11 12 12 13 13 13 13 13 14 12 11 12 12 12 11 11 13 16 17 15 16 15 14 14 13 13 12 13 12 11 12 10 11 10 12 22 25 20 21 25
6 6 6 5 5 5 5 5 5 5 4 4 4 4 4 4 5 9 14 17 19 20 20 19 18 16 13 12 11 10 11 12 11 11 16 18 18 17 16 16 13 11 11 10 8 8 9 10 12 13 14 15 15 14 15 14 15 15 15 14 12 11 13 14 13 15 16 15 15 15 14 14 14 13 13 14 12 11 11 10 11 9 15 26 24 19 22 26
6 6 6 6 6 6 6 5 5 5 5 5 5 5 5 4 4 6 10 15 18 20 20 20 19 17 14 13 11 10 11 11 14 20 24 23 16 12 14 15 11 10 11 10 9 9 10 12 13 15 17 18 17 17 18 17 16 17 18 17 15 13 14 15 14 15 15 14 14 14 14 14 14 13 13 13 12 12 10 10 11 10 18 26 23 20 25 30
6 6 6 6 7 7 7 7 6 6 6 5 5 5 5 5 5 4 6 10 15 19 20 20 19 18 15 13 11 10 10 13 21 28 28 23 13 8 9 9 8 10 11 9 10 14 16 16 15 18 20 20 20 20 21 20 19 19 18 18 17 16 15 16 16 15 14 14 13 14 14 13 14 13 13 13 12 11 10 11 10 12 21 24 21 23 29 33
6 6 6 7 8 8 8 8 8 8 7 6 5 5 5 5 5 5 4 5 10 16 20 21 20 19 16 13 12 9 10 16 23 26 25 19 10 7 7 7 9 11 9 9 15 26 28 21 21 24 22 22 23 23 21 21 21 19 19 18 17 16 16 15 15 15 14 13 13 13 13 13 13 13 13 12 12 11 10 12 12 14 21 23 23 28 33 32
6 6 6 7 8 8 9 9 9 8 8 7 6 6 5 6 5 5 5 4 5 9 16 20 20 19 16 13 11 10 15 20 19 18 17 12 8 7 7 8 11 10 9 14 24 34 34 28 27 28 26 24 25 23 22 22 21 19 19 19 16 15 15 14 14 14 13 13 13 13 13 13 13 12 13 12 12 11 11 13 13 15 21 25 26 30 36 32
6 6 6 7 7 8 9 8 8 8 8 8 7 6 5 6 5 5 5 5 5 5 9 16 20 20 16 16 12 10 20 23 17 16 13 9 8 7 8 10 10 10 15 25 33 36 36 33 31 28 27 25 24 23 21 22 21 19 19 19 17 15 15 15 15 15 15 14 14 14 13 13 12 12 13 12 12 11 11 13 14 15 21 27 28 33 38 31
7 7 6 7 7 8 9 8 8 7 7 8 8 7 6 6 6 5 5 6 7 6 6 10 18 20 17 20 17 13 23 27 20 20 14 8 8 8 9 11 10 16 26 34 36 36 35 33 31 28 26 25 23 22 21 21 21 20 18 18 18 17 17 19 20 20 21 19 19 19 18 16 14 12 12 12 12 11 11 12 14 15 18 25 31 38 38 29
8 8 8 8 8 8 9 8 8 7 8 8 9 8 6 6 6 7 9 10 14 16 14 12 14 19 19 20 21 18 26 30 24 21 14 7 8 9 10 12 17 26 34 37 36 35 33 30 29 28 25 24 23 21 20 20 20 19 19 18 19 19 19 21 23 24 24 22 22 23 21 19 16 13 12 12 11 11 11 12 14 15 17 25 35 41 36 30
8 8 9 9 8 9 9 9 9 8 8 9 9 9 7 8 11 17 19 19 24 28 30 27 18 18 20 19 21 22 27 31 26 18 12 8 9 9 10 17 28 34 36 38 35 34 32 28 27 27 25 24 22 20 19 19 19 20 22 20 20 22 22 22 24 23 24 23 23 22 21 19 16 13 13 13 12 11 11 13 16 17 20 30 39 40 34 31
8 8 9 9 9 9 10 10 9 8 9 10 9 9 9 11 16 23 23 19 23 26 28 33 26 20 22 21 23 27 30 32 28 17 11 10 10 10 13 22 34 37 37 37 35 33 31 28 27 25 24 23 21 20 18 18 20 22 25 25 24 24 24 24 23 22 24 23 20 20 19 18 16 12 12 12 12 13 12 15 18 19 25 36 42 38 33 31
8 8 8 9 10 10 10 10 10 10 10 10 10 10 9 10 15 20 17 11 17 20 17 23 24 20 22 22 24 31 35 35 29 18 12 12 11 13 18 25 33 35 37 37 35 34 31 28 27 23 22 22 21 20 18 18 20 21 26 30 29 26 24 23 22 22 25 23 17 17 18 16 15 13 12 12 12 13 14 17 19 23 32 41 43 38 33 30
9 9 8 8 9 10 11 11 11 10 10 11 11 11 10 11 16 19 15 9 11 18 16 13 14 16 20 22 25 33 36 36 30 18 13 13 11 16 20 23 30 32 34 35 33 34 31 26 24 23 23 22 20 20 18 18 18 22 28 33 30 26 24 22 21 23 25 22 17 15 16 15 14 13 13 13 13 15 18 18 22 31 39 44 43 38 33 28
7 8 8 8 9 9 10 11 11 10 11 12 11 11 13 14 19 24 25 16 9 13 16 12 10 13 18 21 24 31 35 35 30 17 14 14 10 15 20 20 26 30 32 33 31 32 30 22 20 23 25 23 20 19 18 19 20 24 31 33 29 26 24 21 22 24 24 21 17 15 16 15 14 14 13 14 17 22 21 19 28 40 44 45 43 37 32 28
5 6 7 7 8 8 9 11 12 11 11 12 11 12 14 17 25 33 34 24 11 10 14 12 11 12 17 21 22 29 35 34 28 17 15 15 12 15 18 19 23 26 29 31 29 29 26 22 20 23 26 25 24 21 20 22 24 29 34 32 27 25 23 22 24 26 24 20 16 17 19 17 15 14 13 16 24 29 25 23 34 44 45 46 44 37 32 28
6 6 5 6 7 8 8 10 12 12 11 12 13 14 17 21 31 40 38 26 13 13 18 16 13 14 17 19 20 29 36 31 23 17 16 16 15 17 20 21 22 24 25 27 27 25 23 24 25 25 26 26 26 25 25 25 26 32 34 28 25 26 24 24 25 25 24 21 18 20 22 20 18 14 14 20 27 31 29 28 36 43 44 45 44 38 32 27
7 6 5 5 5 6 8 9 11 12 12 13 13 16 20 26 37 42 36 25 17 20 31 34 25 19 19 19 20 30 35 30 23 21 19 19 20 21 22 23 23 25 26 27 26 24 23 24 26 26 26 25 25 25 26 26 28 31 30 25 24 24 24 27 27 24 25 23 20 21 22 22 23 18 15 20 24 27 29 32 35 38 41 42 42 40 33 27
7 6 6 6 5 5 6 8 10 11 13 13 13 16 22 32 43 41 32 29 25 28 38 41 32 26 23 20 23 30 35 33 29 27 23 22 24 24 24 24 24 25 27 28 27 24 24 25 25 26 25 25 25 25 26 27 28 28 27 24 23 21 22 26 27 23 24 26 23 23 20 22 26 22 16 17 19 21 23 30 34 34 37 40 39 39 35 29
10 8 6 6 6 5 5 7 8 10 13 13 13 17 24 37 45 39 35 36 31 33 40 38 33 31 27 23 26 31 35 35 33 32 29 27 27 26 25 25 24 25 26 27 26 24 24 25 24 25 24 24 24 24 25 26 27 26 25 24 23 21 22 25 26 25 25 25 25 25 21 21 26 24 19 18 20 20 20 27 32 32 36 40 38 39 36 30
18 14 9 7 6 6 5 6 7 9 12 12 13 17 25 41 45 40 39 34 29 36 41 37 34 32 28 26 29 32 34 35 35 35 34 32 31 29 27 26 24 25 26 25 25 24 24 24 24 24 23 23 24 24 23 24 25 25 24 24 23 22 24 25 26 26 25 24 25 26 23 22 25 26 23 21 21 22 21 24 28 30 35 40 41 42 38 32
17 19 18 13 8 7 6 5 6 7 10 12 14 17 27 43 48 45 43 32 30 40 40 37 39 36 32 30 31 34 34 35 36 37 37 35 35 32 30 29 27 27 27 25 25 25 24 25 24 23 23 23 24 24 24 24 26 26 24 24 24 24 25 28 27 27 27 26 26 27 26 24 25 26 25 23 21 21 21 21 23 26 30 36 43 46 42 35
8 12 17 18 16 11 7 7 7 5 8 12 14 16 28 45 48 46 41 27 27 41 41 40 42 38 35 32 32 34 34 35 37 38 38 36 37 37 35 34 31 30 30 28 28 27 27 27 25 23 23 24 24 24 26 26 27 27 25 25 25 25 27 29 28 27 27 28 29 29 28 25 25 26 25 23 23 22 21 21 21 22 24 30 40 47 47 41
4 5 8 14 18 16 13 11 8 5 7 10 14 17 27 48 53 42 32 22 26 41 42 40 40 39 38 36 32 32 32 34 36 38 38 36 37 38 37 36 34 32 32 32 30 30 29 28 26 24 23 24 23 24 27 29 29 27 26 25 24 25 29 29 29 30 29 29 34 34 31 28 26 26 26 24 24 23 22 22 22 21 23 26 33 42 48 46
4 3 3 6 12 18 19 13 7 7 6 8 14 16 25 48 51 32 19 16 27 43 44 38 38 38 38 38 35 32 31 33 35 37 37 36 36 37 37 37 35 33 32 31 30 30 29 26 25 23 22 23 22 24 27 29 29 27 26 25 22 25 31 33 33 35 33 30 35 37 33 30 29 26 26 26 25 25 24 22 22 22 22 24 28 35 43 47
4 3 3 3 5 12 18 16 10 6 6 8 12 19 33 43 35 22 17 13 19 35 39 36 37 36 35 38 37 34 32 34 35 37 38 38 37 36 37 37 37 36 34 31 30 30 29 26 23 22 21 22 22 23 25 27 26 26 26 24 22 24 28 30 31 32 32 33 37 39 34 31 33 31 28 28 27 26 25 24 24 23 22 23 25 29 37 44
4 3 3 3 2 5 13 19 16 8 7 8 10 23 36 32 19 17 19 14 11 17 21 23 28 31 31 35 38 36 34 33 34 35 35 36 36 34 34 34 35 35 35 33 31 30 29 27 23 21 21 21 22 22 24 26 25 25 26 25 23 23 23 25 29 31 33 35 37 39 35 32 38 39 32 30 30 28 27 27 26 25 24 23 23 26 32 40
3 3 3 3 3 3 8 17 21 15 8 6 14 27 27 17 14 16 19 21 20 16 15 16 19 23 25 30 37 38 36 34 34 33 33 33 34 33 32 32 32 33 33 32 31 31 29 27 24 23 21 21 21 22 23 25 24 24 25 24 22 22 23 24 32 36 35 34 35 38 40 40 42 43 37 32 32 30 28 28 27 26 25 24 23 24 26 34
3 4 3 3 3 3 6 14 21 20 12 7 16 22 14 10 15 16 20 27 27 23 22 19 18 23 26 29 36 39 37 36 35 34 34 33 33 33 32 32 32 31 31 31 31 30 28 26 25 24 23 22 21 22 23 24 24 22 22 21 20 23 25 24 31 38 36 33 35 38 44 48 42 37 35 32 30 30 28 28 28 28 30 30 31 31 32 37
3 4 3 3 4 4 7 14 21 22 17 12 14 14 9 11 14 16 21 25 28 32 32 24 19 24 29 32 37 40 40 39 37 36 35 34 35 34 32 31 31 31 31 31 31 30 28 27 25 25 24 23 22 23 23 24 24 22 21 20 20 23 27 26 30 36 36 35 38 39 43 46 39 33 32 30 29 29 29 32 35 40 42 43 44 44 46 48
4 4 4 4 5 6 9 16 22 23 20 15 12 11 10 11 13 17 21 23 28 35 34 26 18 18 26 33 35 39 43 43 40 39 38 36 36 37 35 32 31 31 31 30 31 31 30 28 26 24 24 23 22 23 23 23 23 23 22 20 20 22 25 27 28 30 32 35 38 39 40 40 37 35 34 32 33 33 36 41 47 52 52 49 49 49 49 48
4 4 4 5 6 11 17 22 25 25 22 17 12 9 10 12 14 18 20 22 26 28 27 25 21 16 20 29 33 34 40 45 43 42 43 40 38 37 36 34 32 31 31 30 30 30 30 30 27 25 25 24 23 23 22 22 22 22 22 20 20 22 24 27 28 28 29 32 35 37 37 36 34 34 36 37 38 40 47 51 48 49 49 47 48 49 46 45
5 5 7 8 7 16 26 29 31 30 24 19 13 10 12 14 17 19 21 22 23 24 23 22 21 18 18 26 33 34 37 44 45 44 44 44 43 41 37 33 30 30 30 29 29 30 30 30 28 26 26 24 23 22 22 21 21 21 21 19 19 21 24 26 29 31 30 29 33 34 33 35 35 33 37 41 41 44 53 53 46 43 43 43 47 48 44 42
6 4 9 9 10 26 35 30 31 33 27 20 16 12 12 15 20 23 24 24 24 24 24 22 20 19 18 22 31 34 36 40 43 43 42 43 45 45 42 37 32 31 31 30 28 29 30 30 29 27 26 24 24 22 22 22 20 19 19 19 19 20 22 24 27 31 30 30 33 31 29 36 37 34 37 42 44 46 50 51 49 48 46 47 50 48 44 43
6 8 18 21 27 44 41 23 25 30 24 19 18 18 18 17 21 25 24 26 28 25 23 22 21 19 18 19 25 32 34 34 37 39 39 42 45 48 49 46 40 35 34 34 31 29 30 30 29 28 27 26 25 24 23 23 22 21 19 18 19 19 20 21 22 25 27 30 34 30 30 39 41 37 38 41 42 45 47 48 50 52 53 53 51 48 47 45
10 21 34 40 51 62 45 22 20 22 20 23 23 22 25 25 25 27 27 28 29 30 28 24 22 23 23 23 26 33 33 30 31 33 36 41 45 47 51 51 49 44 39 38 37 36 36 33 30 30 30 30 29 27 26 25 24 23 21 19 20 19 20 21 21 25 28 30 31 28 31 41 42 40 41 41 40 40 42 43 45 53 60 58 52 51 51 46
19 33 48 57 66 72 62 43 31 21 17 22 27 27 28 32 30 26 34 42 38 37 39 35 30 29 30 31 32 34 33 31 30 31 35 42 44 45 48 51 54 54 50 47 46 43 40 36 32 31 32 33 33 31 28 25 24 24 23 22 22 22 21 21 22 26 28 29 30 28 30 38 42 42 43 41 38 37 38 39 41 54 65 62 55 54 51 47
26 41 59 71 75 77 80 74 59 45 30 22 32 38 32 40 47 39 46 61 54 45 47 45 39 37 38 37 35 35 33 31 31 33 39 46 47 45 47 49 51 54 55 55 54 48 40 37 34 31 30 31 31 30 28 26 25 25 25 25 25 25 25 24 24 27 27 28 31 30 28 35 41 43 42 40 37 37 37 39 44 58 68 65 59 56 53 51
30 45 58 69 77 82 88 84 75 73 62 44 47 52 45 56 72 64 59 64 59 51 51 49 45 43 42 41 38 37 35 32 31 35 42 48 50 48 49 51 51 52 53 52 53 50 44 42 40 35 32 33 32 31 31 28 26 27 27 27 27 26 27 26 26 27 27 28 32 32 29 34 41 43 42 40 38 38 39 43 52 65 72 70 65 62 60 58
31 51 60 68 80 88 93 91 84 86 89 76 65 63 62 70 77 71 63 61 58 55 52 50 47 45 43 43 42 39 37 35 35 38 44 49 51 52 53 54 55 55 54 51 50 51 52 53 52 47 42 39 36 35 35 33 32 31 29 28 28 27 27 27 27 28 29 29 32 33 32 36 42 44 43 43 42 43 47 52 63 74 79 75 69 68 68 67
30 50 61 68 77 84 92 98 94 92 95 89 76 69 71 74 71 67 64 62 60 57 54 50 47 44 43 44 43 40 39 41 42 43 45 48 50 53 54 56 57 57 55 52 52 53 54 59 60 57 55 52 47 43 39 36 37 39 38 36 33 29 29 28 27 28 29 29 30 33 35 39 44 46 45 45 45 48 55 64 73 82 85 79 73 73 74 72
31 45 56 64 68 75 91 100 99 98 95 87 78 73 72 72 69 67 66 64 61 58 55 53 48 45 45 45 43 41 40 43 46 49 49 49 50 52 53 54 55 56 55 54 54 54 56 60 61 60 64 67 62 53 46 41 41 45 50 51 45 39 37 37 34 31 29 27 27 32 38 43 47 50 49 47 46 49 59 73 82 86 87 84 80 78 77 75
27 37 48 57 58 63 81 96 99 99 96 88 81 77 74 73 71 70 68 66 65 61 58 57 53 52 53 51 47 46 45 45 48 50 51 51 50 50 50 49 48 50 52 54 56 56 55 60 65 65 69 73 69 63 57 52 49 49 51 54 52 49 49 47 43 38 35 32 29 31 39 46 48 50 53 53 50 50 60 76 87 90 89 87 84 82 79 75
20 27 33 45 54 59 74 93 96 93 94 96 93 87 84 82 78 72 70 71 72 68 66 65 61 60 62 59 55 53 52 52 52 52 51 51 48 48 48 46 44 44 46 49 54 55 55 58 62 65 70 74 71 66 63 64 63 59 53 50 50 51 52 51 47 43 40 36 32 31 38 44 46 50 55 58 57 57 66 79 88 92 93 91 87 82 77 72
Wind_Speed
14 15 15 15 15 15 16 16 17 17 18 18 17 17 17 17 17 16 16 16 16 16 16 15 15 15 15 15 15 14 14 14 13 13 12 12 13 13 13 14 13 14 15 17 20 23 25 25 24 23 22 21 21 21 20 20 19 19 19 20 21 21 18 14 10 12 11 8 9 8 9 9 10 11 12 13 12 10 12 12 11 12 11 9 9 7 5 4
14 14 14 15 15 15 15 15 16 16 17 17 17 17 17 17 17 17 17 17 16 16 16 16 16 15 15 15 14 14 14 13 13 13 12 12 13 12 12 13 13 14 15 17 19 23 25 26 24 23 23 22 22 22 21 20 20 20 20 21 22 20 16 12 9 12 12 9 9 9 9 9 10 11 12 12 12 11 10 10 12 11 9 7 6 5 4 2
13 14 14 14 15 15 14 14 15 15 16 16 17 17 17 17 17 17 17 17 17 16 16 16 16 16 15 14 14 13 13 13 12 12 12 12 12 12 12 12 13 14 15 17 18 21 25 26 25 24 23 23 22 22 22 21 21 21 21 21 22 20 15 11 10 12 14 11 9 8 9 9 9 10 10 10 11 11 9 9 9 7 6 5 4 4 3 1
13 14 14 14 15 15 15 15 15 15 15 15 16 16 17 17 17 17 17 17 17 17 16 16 16 16 14 14 13 13 12 12 13 13 12 12 11 11 12 13 13 13 14 15 17 20 23 25 26 25 24 24 23 23 22 21 21 21 22 22 21 19 15 12 11 12 14 13 9 8 9 10 9 10 9 7 8 7 6 6 5 4 4 4 3 3 2 2
14 14 14 15 15 15 15 15 15 15 15 15 15 15 16 16 16 17 17 17 17 17 16 16 16 15 14 13 12 11 11 11 12 12 12 11 10 11 11 12 12 12 13 14 16 19 22 25 26 26 26 25 24 23 22 22 22 22 22 22 21 19 16 13 12 13 15 14 11 10 10 11 11 10 8 7 5 4 3 2 3 3 2 2 2 1 2 4
14 15 15 15 15 15 15 16 16 16 15 15 15 15 15 15 15 16 16 16 16 16 16 15 15 14 13 12 11 10 10 9 10 11 10 10 9 10 10 10 10 11 12 13 15 18 21 24 25 26 26 25 25 23 22 22 22 21 21 22 22 20 17 13 12 14 17 17 15 13 12 12 11 9 8 8 5 4 3 2 2 1 0 1 2 1 4 5
15 15 15 15 16 16 16 16 16 16 15 15 15 15 14 14 15 15 15 15 15 15 15 15 14 13 12 12 10 10 10 10 12 11 11 10 9 10 10 8 8 9 11 13 15 17 20 23 24 25 26 25 24 23 22 21 21 21 21 21 21 20 17 13 13 16 19 20 18 16 14 12 11 9 9 9 7 6 5 4 4 2 3 3 2 3 6 5
15 16 16 16 16 16 16 16 16 16 16 15 15 15 14 14 14 14 15 14 14 14 14 14 13 12 11 11 11 10 10 11 12 12 12 12 11 10 10 9 8 8 10 12 15 16 18 21 23 24 24 24 23 22 21 20 20 21 22 21 20 19 17 15 16 17 19 20 19 18 16 13 12 11 10 10 9 7 7 6 5 5 6 5 4 7 6 5
16 16 16 16 16 16 16 16 16 15 15 15 15 15 14 14 14 14 14 14 14 13 13 13 12 12 11 11 11 10 10 11 12 12 13 13 12 11 11 11 9 9 10 12 14 16 17 19 20 21 22 22 22 21 21 19 18 20 21 20 20 19 18 18 18 18 18 19 18 18 18 15 13 13 12 11 10 9 8 8 7 7 6 5 8 8 6 5
15 15 15 15 15 15 15 15 15 15 15 15 16 15 15 14 14 14 14 14 13 13 13 12 12 12 11 11 11 10 10 12 11 12 13 12 11 10 10 10 10 10 10 11 13 14 15 16 16 19 20 20 20 20 20 19 17 18 19 21 21 19 19 19 19 18 17 18 18 18 18 17 15 14 13 11 11 9 8 8 7 7 6 10 10 7 6 6
15 14 14 14 14 14 14 14 14 15 15 15 15 16 15 15 15 14 14 14 14 13 13 12 12 12 11 11 10 10 11 11 11 11 12 11 10 9 10 10 10 9 9 10 12 13 14 15 16 17 17 18 19 19 18 18 17 17 17 18 20 19 19 18 18 19 16 15 17 18 19 18 17 16 13 11 10 9 7 7 6 7 10 13 11 8 6 6
14 14 13 13 13 13 13 13 13 14 14 15 15 16 15 15 16 15 15 15 15 14 13 13 12 12 11 10 10 11 11 9 9 11 11 11 9 8 9 9 9 9 9 10 12 14 15 16 17 17 17 17 18 16 16 17 17 17 16 14 15 17 17 16 17 18 15 13 14 17 18 20 21 17 13 11 9 8 8 7 7 8 13 14 12 9 7 7
14 14 13 12 12 12 13 13 13 13 14 14 15 15 15 15 16 16 16 16 16 15 14 14 13 12 11 10 11 11 9 8 9 11 12 10 9 8 8 9 8 9 12 14 15 16 16 17 17 17 17 15 16 14 12 15 16 16 16 12 11 13 15 15 15 16 14 11 13 16 17 20 22 19 15 11 9 9 9 8 8 11 14 14 12 9 9 9
14 13 13 13 13 13 14 14 14 14 14 14 15 15 15 16 16 17 16 16 17 16 16 14 13 12 10 9 10 9 8 9 10 12 12 10 9 9 9 9 9 11 15 18 19 18 17 19 17 16 17 14 15 13 10 13 15 13 13 12 12 10 11 15 15 15 14 12 13 15 16 18 18 18 16 13 11 10 10 9 10 13 15 13 12 11 10 10
13 13 13 13 13 14 14 15 15 14 14 14 15 15 15 16 16 16 16 16 16 17 16 15 13 12 10 9 9 8 8 10 11 11 11 10 10 9 10 10 11 14 18 19 19 18 17 19 17 14 15 14 13 13 11 11 13 13 11 10 13 12 10 13 15 16 15 14 14 15 16 17 16 15 14 12 12 12 11 11 12 14 15 13 11 11 11 10
14 14 14 14 14 14 14 15 15 15 15 15 15 15 15 15 16 16 16 16 16 16 16 15 13 12 10 9 9 9 10 11 11 10 10 11 10 10 11 12 13 17 21 20 19 18 16 17 18 13 13 15 13 12 13 11 11 13 12 9 11 13 12 11 12 14 14 13 14 15 15 15 15 15 15 13 13 14 14 13 13 13 15 14 12 12 12 9
14 14 14 14 14 14 15 15 15 15 15 15 15 15 15 15 15 15 15 15 14 14 14 14 13 12 10 9 9 10 13 13 12 10 10 11 11 11 12 13 17 22 23 21 19 18 16 15 17 15 12 13 13 13 13 11 11 12 13 11 9 10 12 9 8 10 10 10 11 13 15 14 13 13 14 16 17 16 16 15 15 15 15 16 14 13 12 9
14 14 14 14 14 14 14 15 15 15 14 14 15 15 15 15 14 14 14 13 12 12 11 11 12 12 10 11 11 12 15 15 13 12 12 12 12 13 15 16 21 25 23 21 19 18 16 14 14 15 13 13 13 13 13 11 12 12 13 13 10 9 10 9 7 8 8 9 9 11 12 13 13 12 11 15 20 19 18 18 17 17 17 16 15 14 12 10
15 15 14 14 14 14 14 14 14 14 14 14 15 16 15 15 14 13 14 13 11 11 9 8 10 11 10 11 12 13 15 15 13 13 13 13 14 15 18 22 25 25 22 21 19 17 15 13 13 15 15 15 13 12 12 11 10 11 10 11 10 8 9 9 7 6 8 9 10 12 12 12 14 15 11 11 17 20 19 20 20 20 20 17 16 14 13 12
16 15 15 15 14 14 13 13 14 13 13 13 15 16 15 15 14 13 13 13 12 13 12 10 11 13 13 12 13 14 15 15 14 14 14 14 15 17 21 25 26 23 21 19 19 17 14 13 14 15 13 13 13 12 11 10 10 9 8 9 9 8 8 7 5 5 6 7 9 14 14 13 15 17 15 11 13 16 18 20 21 22 21 17 16 14 13 13
17 16 16 15 15 14 13 13 13 13 13 13 15 16 15 16 15 15 14 11 9 13 14 14 13 13 15 15 15 15 15 15 15 15 15 15 17 20 23 25 25 23 20 19 17 17 15 14 14 13 12 12 13 14 12 11 12 9 7 8 8 8 8 5 4 5 4 5 9 14 16 15 17 18 16 14 12 11 14 19 22 22 21 18 17 15 14 14
18 18 17 16 16 15 13 12 12 12 12 13 14 15 15 16 15 15 17 11 4 9 15 16 13 10 14 17 17 17 17 16 16 16 16 16 18 21 23 23 23 21 20 19 17 15 17 17 14 10 11 12 13 14 13 12 13 10 8 8 7 7 6 3 2 3 4 4 7 14 17 17 17 17 16 14 12 10 13 20 23 21 20 18 17 16 15 14
19 19 18 17 16 16 14 12 12 12 12 13 14 15 15 15 14 14 17 16 6 5 12 14 11 7 12 18 19 19 18 17 17 18 17 17 18 20 22 22 21 20 20 21 19 15 15 14 13 11 9 10 12 13 14 13 13 11 9 9 8 6 5 3 2 4 5 4 7 16 20 19 17 16 14 12 11 11 16 21 22 21 19 18 18 17 16 13
19 19 19 19 17 17 16 13 12 12 12 13 14 14 14 13 13 13 17 19 11 4 9 12 9 5 11 18 21 19 18 17 18 20 18 17 18 19 19 19 18 18 19 20 19 18 14 8 8 11 9 7 10 11 13 14 12 11 11 10 9 6 4 3 2 3 3 3 6 15 16 16 17 15 13 11 10 13 18 21 21 21 19 19 18 18 17 13
20 19 19 19 18 18 17 14 13 12 12 13 13 13 13 11 11 13 16 19 15 7 6 9 7 6 13 20 21 19 17 17 18 19 18 16 16 16 16 17 17 16 17 17 18 19 15 9 9 12 8 6 9 11 11 12 12 12 12 10 8 5 4 3 1 2 2 1 9 13 8 9 14 14 12 11 11 12 15 19 20 21 20 19 19 19 17 14
20 20 19 19 19 18 18 17 15 13 12 13 13 12 11 10 10 12 15 19 14 5 2 3 4 6 12 18 21 19 18 17 17 17 18 16 14 14 14 16 17 15 15 15 16 16 15 12 11 10 5 2 7 12 12 12 13 13 11 9 8 6 5 3 1 4 4 4 9 8 3 5 9 12 13 12 11 11 13 17 20 20 20 20 20 19 18 16
21 20 20 20 19 18 18 18 16 14 13 13 13 12 10 9 9 11 12 13 8 2 3 3 3 5 9 17 21 20 16 14 17 17 17 17 16 15 15 16 17 15 15 15 13 13 14 13 10 8 3 1 7 12 12 14 15 11 9 8 6 5 6 5 3 4 4 6 7 6 6 7 6 10 13 12 12 13 14 17 19 20 20 20 20 20 19 17
21 20 20 20 20 19 18 18 17 16 14 13 13 12 10 8 7 8 7 4 2 2 3 1 5 4 8 17 22 21 14 11 17 18 16 17 17 16 16 16 15 14 15 17 13 10 12 12 9 7 4 2 6 10 12 15 15 11 9 8 5 3 4 7 5 4 6 8 5 6 9 7 5 10 13 12 12 13 15 17 18 19 19 20 20 20 20 19
21 21 20 19 20 20 19 17 17 17 16 14 12 13 11 7 6 6 4 1 2 1 1 3 4 2 7 16 22 23 15 8 15 19 18 19 18 17 16 14 14 13 14 16 15 10 9 10 9 7 6 3 2 6 12 15 14 12 11 9 5 2 3 6 7 5 7 7 4 8 10 5 4 10 13 12 11 11 13 16 17 18 19 21 22 21 22 21
21 21 20 19 19 19 19 17 17 18 17 15 13 13 11 8 7 3 1 3 1 1 2 3 4 2 5 14 21 24 19 10 9 15 20 21 17 17 15 12 13 13 13 15 16 13 10 9 10 9 8 5 2 4 10 14 13 12 12 10 6 4 5 6 6 6 5 4 5 9 10 6 5 9 13 13 11 10 11 13 15 18 20 22 24 23 23 22
20 20 20 19 18 18 18 17 17 19 18 16 15 13 12 11 9 3 1 4 4 2 2 4 6 4 2 10 18 23 23 15 8 11 20 23 19 19 17 15 14 12 12 14 15 14 13 12 12 12 10 7 4 4 8 13 14 13 12 10 7 5 6 5 4 6 5 2 6 10 11 8 6 8 13 14 12 13 13 12 13 16 20 24 25 25 24 24
18 18 19 19 18 17 17 17 19 19 18 17 16 14 15 12 10 11 8 4 3 5 6 7 7 6 3 5 13 20 23 21 14 11 16 21 21 21 19 17 16 12 10 13 13 12 13 13 13 13 13 10 8 6 8 13 15 15 13 11 8 4 3 4 2 3 3 2 5 9 10 7 6 11 16 15 14 15 14 13 13 13 17 22 25 26 26 25
19 18 17 19 18 16 17 18 19 19 18 18 17 17 18 11 9 19 20 9 3 6 7 6 7 6 3 3 9 16 21 22 20 16 15 17 18 19 19 18 18 14 9 10 13 12 9 11 14 15 14 13 11 10 11 14 17 17 15 13 10 4 2 3 1 0 2 2 5 9 8 5 5 12 18 17 16 16 15 14 13 12 14 17 23 27 28 28
20 18 17 18 18 17 17 18 19 20 20 19 19 19 19 13 12 19 21 16 11 8 6 6 7 6 4 4 6 11 17 20 20 19 18 17 17 18 19 20 20 19 14 10 11 11 7 8 13 16 15 13 13 12 13 15 17 17 17 15 13 10 5 3 3 3 3 3 6 8 6 5 6 11 17 19 17 16 16 15 14 14 15 15 19 24 29 31
20 19 17 16 17 17 16 17 19 21 22 22 22 23 24 22 21 19 16 16 15 14 13 11 10 8 7 6 7 8 12 16 18 20 20 20 20 19 19 19 19 20 20 15 10 8 7 7 9 15 17 14 12 13 15 16 15 16 17 15 14 13 9 5 4 5 4 3 5 7 5 6 8 10 14 17 16 16 15 15 15 15 16 17 18 22 28 32
20 18 17 16 15 15 15 16 17 20 23 24 24 28 31 29 23 17 13 13 14 14 15 13 12 12 9 8 9 8 10 12 13 16 18 18 20 20 19 19 18 18 19 18 14 10 8 8 8 13 17 15 13 13 17 17 14 15 18 18 16 15 12 8 4 4 4 3 4 5 4 6 8 8 11 12 11 12 12 12 14 15 16 19 21 21 24 30
19 17 16 15 15 14 14 14 16 19 23 26 28 30 32 30 24 17 13 12 12 12 12 9 8 9 8 7 10 11 11 11 9 12 15 15 15 19 21 20 19 18 16 17 17 13 10 8 8 12 16 18 17 14 14 18 17 15 16 18 17 14 13 10 4 3 2 2 3 5 4 6 8 6 8 10 9 9 10 11 13 15 15 16 17 16 16 19
19 17 15 14 14 13 13 13 15 19 23 27 31 31 29 29 27 23 17 13 12 11 9 7 6 6 6 6 8 11 12 12 9 8 10 13 12 13 19 21 19 18 15 16 17 15 12 8 6 10 13 16 19 17 14 17 20 18 15 16 15 10 10 12 6 3 5 3 1 3 3 7 11 8 6 8 9 9 9 9 10 9 7 4 2 2 3 4
19 17 14 13 13 12 12 13 16 19 23 29 32 30 29 28 27 25 22 17 14 11 9 7 6 6 6 6 6 8 12 14 13 9 6 9 9 9 13 17 17 18 17 16 17 17 15 11 5 8 12 12 16 18 17 18 21 21 18 15 14 11 11 14 10 6 7 4 1 3 2 5 13 13 8 8 9 8 7 7 7 7 8 7 7 6 5 5
18 17 15 13 12 11 10 12 16 20 24 30 31 30 28 26 25 25 24 22 19 16 13 12 10 9 9 10 7 5 8 14 17 17 11 8 7 7 9 11 11 13 16 17 18 18 18 16 9 7 10 11 13 16 18 17 19 22 21 19 18 15 12 13 11 8 7 3 2 3 2 5 14 16 12 11 12 10 8 8 7 7 6 3 3 3 2 3
18 17 14 12 11 9 8 11 16 20 24 28 29 30 28 24 21 20 21 23 22 20 18 16 15 13 12 13 10 6 6 10 15 18 18 16 13 9 7 9 10 10 10 14 17 19 19 18 15 11 10 12 14 16 17 17 18 21 22 22 22 20 16 11 7 7 8 5 4 5 2 6 15 17 16 15 15 14 13 10 7 4 2 1 3 3 1 2
20 17 13 11 9 7 6 10 15 19 23 26 27 27 27 25 20 16 15 18 19 19 19 18 16 15 15 15 13 8 7 9 12 14 15 18 21 17 10 8 9 9 8 8 12 18 20 18 18 15 13 14 14 14 16 17 17 18 20 21 21 21 19 13 7 9 12 7 6 6 3 6 15 18 19 18 17 17 17 13 9 4 2 3 4 5 6 7
20 17 13 10 7 5 5 8 14 18 22 25 25 23 22 22 20 16 14 14 15 16 17 16 15 15 16 16 15 13 10 11 12 13 13 14 18 21 18 14 9 7 8 7 7 15 18 16 16 13 10 12 12 12 15 16 14 15 17 19 19 19 20 17 11 12 16 12 8 6 3 7 15 19 20 20 18 18 18 16 12 8 7 8 6 7 11 12
18 15 11 9 7 4 5 9 14 17 21 22 21 20 18 17 17 16 14 13 13 13 13 14 14 13 15 15 14 13 12 12 12 14 15 14 15 18 21 21 15 8 7 7 8 13 13 12 13 11 7 7 8 8 11 13 12 13 15 17 18 19 19 17 13 11 14 16 13 7 3 9 16 19 20 20 18 18 18 18 16 12 12 12 9 10 14 15
16 13 10 8 7 4 7 10 12 15 18 19 17 16 16 15 14 14 13 12 12 12 11 12 13 13 14 14 14 14 13 13 12 13 14 15 15 17 19 20 20 17 12 10 10 11 11 12 14 12 7 6 6 6 9 12 11 10 12 14 15 17 17 16 14 12 11 14 16 10 5 12 19 19 19 19 18 18 18 19 18 16 17 15 13 15 17 16
13 11 9 7 6 4 6 9 11 13 16 17 16 15 14 13 13 13 12 11 11 12 12 11 12 13 13 13 14 13 13 13 12 12 14 16 16 18 18 17 17 17 17 16 16 13 9 9 11 13 14 10 8 9 13 15 15 12 12 13 13 15 16 16 15 12 11 13 15 12 10 15 22 21 19 19 18 18 19 19 20 21 20 18 17 18 18 16
13 12 11 8 7 6 4 5 8 12 16 17 16 14 13 13 12 11 12 12 11 12 12 10 10 11 11 13 14 13 12 13 13 12 14 17 19 19 19 18 16 15 15 18 20 16 9 7 5 4 9 9 8 10 11 14 15 14 13 12 11 11 12 15 13 11 12 11 10 11 12 16 23 23 21 20 19 19 19 20 22 23 22 20 19 19 18 16
14 14 14 12 11 10 5 3 3 6 13 17 15 13 13 14 13 11 11 12 12 12 12 10 10 10 10 11 13 13 12 13 13 13 14 16 18 18 18 18 15 14 15 17 20 20 14 8 4 5 8 8 9 10 10 12 12 12 11 9 8 6 6 10 10 8 10 9 6 9 13 16 22 24 22 21 20 19 20 22 22 23 22 21 19 18 17 16
14 14 15 15 15 15 9 3 3 1 8 14 14 11 12 14 15 13 12 12 13 13 10 9 9 9 10 10 11 12 13 13 12 13 14 15 16 16 17 16 13 12 13 13 15 18 20 19 17 12 7 4 5 8 10 12 13 12 9 8 6 5 5 4 6 6 6 5 3 5 10 15 20 23 22 22 21 20 22 22 23 22 21 21 20 18 17 17
12 13 14 15 15 16 14 7 6 4 6 12 13 12 12 14 15 14 13 12 13 12 10 9 10 9 8 7 7 10 12 12 12 13 14 14 15 16 15 14 14 14 14 13 13 14 18 20 22 23 19 13 10 8 8 9 9 7 4 3 4 4 4 3 2 3 3 3 1 2 7 14 18 19 21 22 21 21 22 22 23 22 22 21 20 19 19 19
11 11 12 12 13 15 16 12 10 8 9 12 14 15 15 14 14 14 14 12 12 12 11 9 9 8 7 5 4 6 8 9 10 12 12 12 13 14 13 11 12 14 14 16 16 16 17 18 20 22 20 18 18 15 12 10 9 7 8 7 4 3 6 7 5 3 2 1 1 2 7 12 15 17 19 20 20 21 22 22 23 23 22 21 20 20 20 20
10 9 9 10 11 13 14 12 10 11 13 14 15 15 14 13 11 11 12 13 12 11 10 9 8 6 5 4 4 4 5 6 7 9 9 10 11 11 11 11 12 13 14 15 17 17 17 18 20 20 18 18 18 15 12 11 10 11 15 15 12 12 12 12 10 8 6 5 4 4 7 10 14 16 18 19 19 20 21 22 22 22 22 21 20 20 20 20
Wind_Direction
296 297 297 297 297 296 295 293 292 289 287 285 282 280 278 276 274 271 269 267 266 265 266 266 267 268 270 272 272 272 272 274 275 274 271 266 262 258 254 252 248 243 237 232 230 228 226 224 221 219 219 218 218 218 217 216 216 216 216 220 225 229 229 226 210 179 166 150 137 133 136 124 110 115 117 125 128 134 148 143 141 136 123 119 107 109 116 90
297 299 300 300 301 301 301 301 298 295 292 288 284 281 278 276 274 272 269 268 266 265 265 266 267 268 270 271 271 271 271 274 274 274 271 265 261 258 255 252 248 242 236 230 228 227 226 224 221 219 219 219 218 217 216 216 216 217 219 223 227 230 229 221 209 189 181 165 146 134 132 125 110 115 116 115 122 128 133 127 127 122 108 101 85 81 94 78
299 301 303 304 304 305 305 305 304 302 297 293 288 283 279 275 273 272 270 268 267 266 266 267 268 269 271 271 270 270 270 271 271 270 267 263 261 257 253 249 245 241 235 231 228 227 225 224 222 220 219 219 219 218 216 215 216 218 221 225 228 230 226 214 204 197 193 180 156 139 134 133 114 112 114 107 118 127 122 116 114 103 86 74 57 55 79 89
300 302 304 306 306 307 307 307 306 305 302 299 292 286 281 276 273 271 269 269 268 267 266 266 268 269 270 270 269 269 269 270 268 265 262 260 258 254 250 246 243 241 237 233 230 227 224 223 222 220 219 220 220 219 218 215 216 218 220 225 229 229 221 209 201 200 201 191 173 157 144 144 136 127 128 118 117 124 121 114 98 78 65 50 39 50 89 142
301 303 304 305 306 307 308 308 307 305 305 304 299 292 284 278 275 273 271 269 268 267 267 266 267 268 267 267 266 266 269 271 267 261 259 255 251 249 247 245 243 240 238 233 230 228 225 222 222 220 219 220 221 220 219 217 216 218 220 224 228 227 219 211 203 205 209 202 193 180 162 159 156 147 148 143 125 128 132 118 99 84 64 39 37 61 121 146
302 303 303 304 305 306 306 306 306 305 306 306 303 299 292 283 278 275 273 271 270 268 268 267 267 266 265 264 263 263 265 266 260 257 256 249 242 243 241 241 242 238 235 232 228 228 225 222 221 219 219 220 221 221 220 219 218 219 222 225 229 228 219 212 205 205 210 209 205 200 186 171 166 164 163 155 142 148 155 162 172 160 160 355 357 120 136 135
303 303 303 303 303 304 304 303 303 303 304 304 304 303 298 290 283 278 275 273 272 270 268 268 267 266 264 262 260 260 261 256 253 254 254 247 239 237 234 231 236 237 233 229 227 226 226 224 220 218 218 219 221 222 222 222 220 219 222 226 231 230 221 211 207 205 208 211 211 210 200 184 181 182 177 172 165 167 174 188 203 225 249 290 298 182 152 136
304 304 303 302 302 302 301 300 301 301 301 302 302 302 300 294 287 282 277 274 272 270 268 267 266 264 261 259 257 256 257 255 254 254 253 250 242 238 236 234 235 236 232 228 225 222 223 224 220 217 217 218 220 221 223 223 222 221 222 226 231 231 223 212 206 205 207 211 212 213 205 196 199 198 189 185 186 188 195 209 222 239 257 265 223 182 157 138
304 304 303 303 302 301 300 299 298 298 298 299 299 299 298 294 288 283 279 275 271 269 267 265 264 261 256 255 253 252 253 252 252 251 252 252 247 244 243 241 237 232 228 226 224 220 218 220 218 216 216 217 218 219 222 222 223 224 224 229 232 230 225 216 207 204 206 210 214 214 208 206 211 209 201 195 198 199 207 222 229 239 240 207 189 175 149 138
303 303 303 304 303 302 300 299 298 297 296 296 296 296 297 294 288 282 277 274 270 267 264 262 260 256 253 251 250 250 247 245 246 247 249 252 253 250 244 241 236 227 223 222 223 220 215 213 212 212 213 215 216 217 220 220 220 225 228 232 233 230 229 224 210 205 209 211 216 217 212 215 218 216 209 203 204 202 210 221 225 232 197 171 177 169 150 151
302 301 302 303 304 304 303 302 300 298 296 295 294 295 296 295 290 283 277 273 269 265 262 259 256 253 251 247 247 247 241 239 240 240 244 249 253 251 240 238 235 222 215 217 214 207 203 202 202 204 205 209 211 214 218 217 216 221 229 233 235 232 230 229 213 208 216 218 221 221 218 221 222 220 212 205 205 203 211 218 220 215 179 169 172 163 156 158
300 299 299 300 303 305 305 305 304 302 301 298 296 295 296 295 291 286 279 273 269 264 261 258 255 251 247 246 246 243 239 237 233 232 240 246 251 250 238 232 228 214 199 198 197 191 188 192 196 196 198 203 205 208 213 214 213 218 226 232 237 236 231 229 217 213 219 223 224 223 224 226 225 225 216 206 207 207 216 223 219 198 175 172 170 159 158 154
298 296 295 297 300 303 304 306 306 307 306 304 300 296 294 293 292 289 285 278 271 266 260 256 254 250 245 247 245 242 238 229 222 228 236 243 248 244 237 230 220 206 189 179 178 177 179 188 193 193 195 197 197 200 206 208 209 216 225 228 231 236 233 227 219 215 218 221 223 223 229 231 229 231 226 217 213 211 221 228 216 189 174 171 166 156 155 156
297 294 292 294 297 300 303 304 305 307 308 308 306 301 295 291 290 290 289 284 276 269 262 256 253 248 243 246 246 240 228 214 216 227 233 239 240 234 231 222 207 198 189 179 171 168 177 187 188 190 193 189 190 193 189 195 205 213 221 226 225 227 230 226 220 218 218 220 224 226 234 235 231 232 229 225 217 210 216 219 206 187 174 168 164 158 159 163
296 292 291 292 295 298 301 302 303 305 307 308 308 308 301 293 290 289 290 289 283 275 267 258 252 246 239 242 246 230 205 205 213 220 227 229 228 224 214 202 191 187 185 177 168 167 178 188 187 186 191 188 187 188 179 181 196 204 208 216 220 219 219 220 221 224 225 228 229 229 237 237 230 229 227 222 215 209 207 202 200 188 171 167 169 165 167 168
296 292 290 290 292 297 300 301 302 303 304 305 307 309 306 299 293 292 293 294 291 284 274 262 251 244 236 233 236 215 192 200 210 210 217 217 215 212 197 186 183 180 177 172 168 171 178 188 189 186 190 192 188 185 186 186 190 200 205 203 207 211 212 215 220 223 226 229 228 228 237 239 233 233 232 226 218 213 208 197 195 189 170 168 176 171 170 168
295 292 290 289 291 294 298 300 301 301 302 303 305 306 307 306 302 299 298 297 297 294 283 267 250 240 235 228 223 206 193 200 207 206 210 207 203 198 186 178 176 174 173 171 171 175 179 184 189 190 190 191 190 187 188 195 195 195 200 201 197 200 205 205 204 205 212 223 225 228 235 237 238 241 238 229 220 213 210 200 192 188 174 173 180 175 170 169
294 292 289 288 289 292 296 299 300 300 301 302 303 303 305 309 309 304 299 298 302 302 294 272 248 238 233 226 216 201 195 200 205 207 206 200 195 187 177 173 174 174 174 175 176 179 183 184 187 193 194 190 190 193 194 200 201 193 192 201 202 201 203 202 201 207 223 238 235 235 232 226 228 232 228 223 217 212 210 202 192 186 179 176 181 176 170 174
293 291 289 288 287 289 293 297 299 299 299 301 301 300 302 307 310 308 303 303 308 303 294 272 243 227 218 217 213 202 198 202 206 206 204 197 193 185 174 173 176 178 178 180 181 184 189 189 188 193 199 200 196 197 205 207 199 188 187 198 202 206 208 205 218 236 247 255 248 239 233 225 223 217 207 202 203 207 207 200 191 183 179 178 181 176 172 178
292 290 288 287 286 287 290 294 297 297 297 299 298 298 299 302 305 305 303 304 304 294 281 268 248 222 209 207 207 201 199 203 206 206 203 195 190 185 177 177 180 182 182 184 187 192 195 198 200 199 199 206 208 211 219 212 195 184 187 196 199 208 210 207 236 257 259 266 249 234 227 221 217 209 205 199 191 198 201 196 189 180 176 177 180 176 177 181
291 290 288 286 284 284 286 289 292 293 294 295 296 296 298 302 307 310 308 304 290 283 274 265 258 231 209 205 203 199 200 202 204 205 202 193 188 185 181 183 186 185 185 188 193 199 203 209 210 206 206 212 218 223 227 216 201 199 202 195 191 205 209 205 238 257 278 276 239 219 212 207 203 199 202 207 202 201 199 193 188 179 173 175 178 176 182 184
290 289 288 286 284 282 283 285 286 287 288 291 292 295 299 306 315 320 317 313 269 260 269 267 268 245 209 205 203 201 203 201 201 203 198 192 188 186 186 189 191 191 190 192 198 205 214 220 216 211 220 225 227 227 226 219 208 209 212 202 200 205 203 189 233 279 315 291 223 195 191 193 193 192 195 204 209 210 202 193 187 178 170 173 176 179 188 188
288 287 286 286 283 280 280 280 280 280 281 285 288 294 300 309 321 326 322 318 307 252 264 267 273 252 204 206 205 204 206 203 202 200 194 193 188 187 193 194 194 196 197 200 203 207 218 229 222 214 220 223 222 217 213 209 205 208 211 206 203 198 197 193 258 304 324 303 216 183 180 184 187 189 191 198 202 198 194 191 185 175 168 173 177 183 192 190
287 286 285 284 282 280 277 275 275 275 274 278 284 292 299 310 321 323 321 318 318 301 265 262 271 241 195 204 208 207 206 202 204 200 192 193 188 187 194 198 200 201 203 208 212 215 222 231 204 196 199 200 207 207 202 202 203 208 210 203 194 190 204 208 273 295 324 330 184 172 174 181 183 184 186 193 191 185 187 186 181 173 169 173 180 188 193 189
287 285 283 282 280 279 276 272 270 269 269 272 278 288 296 310 318 318 321 317 318 329 279 260 261 228 199 203 206 204 203 200 202 200 196 196 192 188 190 196 202 202 204 209 214 219 222 209 173 176 183 185 199 204 202 202 205 211 210 199 188 192 203 198 261 214 182 130 152 154 158 175 181 182 183 190 185 179 183 181 177 174 174 177 182 189 194 188
286 283 282 280 278 277 275 271 266 264 264 265 272 281 290 304 310 314 320 314 312 337 339 284 239 215 204 203 202 197 198 199 197 199 201 200 197 196 194 196 198 195 197 202 209 216 213 200 182 177 177 163 194 203 202 199 206 217 216 198 185 190 184 173 218 200 185 174 166 171 181 160 173 181 183 188 186 185 186 182 181 181 183 184 184 190 195 191
287 282 280 277 275 274 272 269 265 261 259 258 265 271 279 293 302 316 325 313 302 327 336 306 186 193 200 200 199 194 193 197 197 201 203 198 198 200 200 201 197 193 194 196 204 209 199 192 190 187 185 133 190 204 205 199 204 214 206 186 175 174 177 180 202 207 183 166 172 201 196 155 154 175 184 195 201 203 199 191 190 190 191 190 187 191 196 194
289 284 279 275 273 271 268 268 264 258 254 252 257 260 266 279 291 315 331 321 307 347 345 151 161 177 200 199 196 192 190 192 197 201 198 195 199 201 203 205 199 196 200 200 203 201 190 190 194 195 200 177 183 204 209 205 209 213 193 177 169 155 183 196 200 194 175 171 170 180 176 161 151 165 178 196 205 205 201 197 197 199 200 196 191 194 197 197
291 287 281 275 271 269 265 264 260 256 251 245 248 251 252 261 276 304 325 288 301 315 105 133 156 172 201 201 194 191 191 186 196 201 195 194 199 202 205 205 198 201 210 211 211 206 195 195 198 205 218 216 174 197 205 204 209 208 192 185 188 198 213 204 197 180 175 192 194 170 172 171 169 168 169 183 194 194 193 198 204 207 207 204 200 199 199 199
294 289 284 277 270 267 262 260 255 252 248 239 237 240 238 240 249 276 308 233 223 150 207 182 171 163 195 202 195 193 194 183 184 197 196 196 199 202 205 203 202 210 217 219 220 218 215 213 215 221 227 226 191 174 195 199 198 195 192 192 200 219 216 204 194 179 177 208 197 182 183 175 175 178 172 177 187 189 193 203 210 213 211 208 206 205 204 204
298 292 287 281 272 266 260 256 250 247 244 235 229 228 224 225 225 203 177 231 218 185 189 162 160 149 173 203 200 199 200 195 184 191 194 196 201 206 208 206 204 209 220 228 229 228 231 231 227 225 226 225 215 197 197 196 190 188 194 195 193 192 191 194 188 181 188 197 183 187 189 184 193 188 178 181 188 190 198 207 213 217 216 211 209 207 208 208
304 297 290 282 275 267 258 251 245 243 240 230 224 219 211 209 216 216 215 234 235 198 169 147 150 151 151 205 205 204 207 207 207 205 196 196 205 212 214 213 205 199 214 228 232 237 239 235 227 225 229 228 227 223 206 195 189 190 195 191 186 174 175 198 197 186 211 205 177 183 183 189 208 191 184 186 187 188 193 199 204 213 217 216 213 210 209 210
306 303 295 284 277 267 255 248 240 238 236 226 220 213 202 194 222 228 224 223 210 179 170 163 161 165 185 222 207 207 212 213 213 212 206 204 213 219 222 223 217 212 215 223 228 235 238 231 226 227 229 226 225 222 203 193 193 198 201 194 186 165 144 204 191 220 245 212 182 183 178 184 194 188 189 190 188 190 194 197 201 206 213 219 218 215 212 211
306 304 300 289 279 269 258 249 238 232 230 222 215 205 196 199 227 233 229 228 224 214 215 214 196 196 218 213 203 207 213 216 217 218 219 218 220 224 226 227 224 223 224 225 229 228 223 223 220 222 225 222 219 214 202 198 201 207 210 207 199 187 183 206 200 204 205 167 172 181 182 180 175 179 186 190 194 196 198 203 207 210 214 219 223 222 218 215
307 304 303 298 286 274 263 253 241 232 225 219 211 201 199 210 224 230 234 235 235 240 246 248 240 243 247 223 212 207 208 214 218 223 228 229 229 231 230 228 224 223 224 224 228 227 226 231 217 213 218 219 214 206 203 205 209 213 212 211 210 205 202 201 196 196 175 142 171 183 189 184 177 181 185 190 198 199 202 210 215 221 224 226 229 228 224 220
309 306 305 305 293 278 264 251 241 232 225 218 208 205 212 221 225 229 233 232 237 243 246 251 252 251 255 237 219 208 205 209 210 217 226 230 233 235 234 232 227 225 225 222 221 219 221 229 221 212 212 214 213 208 206 208 212 212 207 209 215 212 208 201 176 163 168 180 195 187 184 177 178 194 196 198 206 206 212 220 224 231 231 230 234 235 233 228
313 311 308 305 296 281 263 248 236 229 226 219 210 213 224 228 227 227 228 226 232 240 243 244 239 238 243 228 212 207 209 210 202 209 217 220 228 232 231 234 235 234 232 225 222 219 216 225 228 221 215 211 213 216 214 214 216 212 206 213 217 211 207 204 169 107 164 210 202 187 185 177 177 193 202 210 229 236 238 239 236 238 235 235 239 241 240 233
315 314 309 303 296 282 262 244 230 225 223 218 215 222 230 231 229 228 226 227 229 230 229 225 212 216 224 215 206 203 208 210 198 198 211 212 219 229 229 233 236 236 231 224 222 219 218 231 237 228 223 214 215 221 217 214 218 220 219 220 218 205 194 193 177 150 187 198 175 186 205 200 196 190 188 212 233 243 246 241 232 224 209 196 181 195 228 234
322 321 315 305 298 285 263 239 225 221 219 217 218 224 230 232 232 229 226 227 228 225 227 236 236 232 231 226 216 205 209 211 206 203 204 204 214 223 224 228 232 232 230 224 219 214 214 224 231 223 225 218 215 218 214 210 213 218 223 223 218 213 196 189 189 185 188 190 156 177 202 218 209 200 186 201 211 213 222 220 200 164 131 101 76 67 67 72
332 330 322 312 303 288 265 238 224 219 218 220 223 225 228 233 233 231 229 229 231 234 240 249 256 255 245 235 235 231 221 215 213 219 222 214 219 222 217 220 217 221 228 224 219 214 213 220 222 215 221 217 210 213 213 212 211 212 214 214 211 208 193 185 194 194 182 174 156 172 193 210 207 205 195 192 193 186 184 188 175 143 122 92 41 37 38 64
340 337 327 317 311 291 261 235 227 223 221 224 227 226 228 233 235 234 233 233 236 241 245 250 253 253 248 239 237 243 237 219 214 223 229 228 232 228 204 199 192 195 214 217 215 213 212 218 220 215 215 212 210 216 215 212 214 215 215 215 210 203 189 176 190 199 187 182 181 180 185 194 200 203 195 187 188 182 174 171 166 136 98 110 105 94 63 73
342 343 337 327 317 298 266 236 229 225 221 223 226 226 228 233 237 237 234 234 238 241 244 249 249 246 245 243 239 240 244 230 219 223 230 231 233 232 218 200 192 192 204 211 212 211 210 215 216 213 216 216 215 218 211 206 210 212 214 215 211 207 201 193 195 198 191 189 185 180 179 187 195 200 195 189 189 186 180 177 179 184 201 183 144 127 131 125
344 347 346 339 326 307 275 239 228 220 216 219 224 224 226 231 238 241 238 236 238 240 242 245 245 243 243 244 244 242 242 236 225 223 230 230 227 226 224 219 204 188 201 214 215 206 205 208 203 194 196 203 199 194 194 196 198 200 206 210 208 209 209 208 214 206 195 189 176 171 178 184 190 197 197 195 195 194 192 194 197 200 199 195 186 167 158 150
352 354 353 350 340 304 245 228 226 219 213 217 222 222 223 229 236 239 238 237 237 238 240 240 239 239 239 240 244 241 236 232 226 223 228 227 217 215 219 222 222 217 204 206 207 203 202 201 188 167 151 175 180 176 181 185 184 189 200 205 206 209 210 212 215 205 196 195 190 183 178 180 186 194 196 199 203 202 202 207 207 197 190 195 195 180 170 164
1 360 358 357 352 312 242 234 233 225 217 216 221 223 223 227 233 235 233 232 229 225 226 232 233 233 235 235 236 237 232 228 227 221 218 218 214 212 215 220 227 233 230 221 209 201 204 205 196 187 180 174 178 186 183 181 182 187 194 197 201 205 208 211 209 198 198 202 197 195 186 178 182 187 191 197 204 204 203 206 201 189 187 194 193 181 177 175
11 10 6 356 348 327 265 249 247 239 226 219 220 224 222 220 225 228 225 222 220 215 214 219 221 225 230 227 226 231 228 222 223 219 209 203 200 201 203 208 217 225 229 228 216 199 187 188 200 209 207 194 185 185 181 181 183 180 182 188 194 199 204 208 206 202 206 203 197 202 201 182 180 182 185 190 195 197 198 198 192 185 188 196 193 185 185 189
21 28 23 13 3 350 307 265 261 247 229 218 216 220 217 210 212 216 215 212 212 211 212 212 210 214 220 218 217 222 222 218 218 215 206 199 195 193 195 201 208 214 217 219 217 209 174 117 100 168 182 175 170 170 172 177 176 168 166 170 176 183 194 201 201 202 205 200 197 205 203 187 182 182 183 186 189 192 193 191 187 184 189 196 195 192 195 199
30 37 32 31 24 10 350 325 318 250 217 206 205 210 209 202 200 201 199 201 203 202 205 208 206 209 210 206 208 212 211 211 210 205 201 198 195 194 194 199 206 214 216 219 224 223 207 176 139 106 108 117 132 138 146 154 147 139 139 139 145 149 168 189 190 190 197 200 204 205 200 192 186 184 184 185 187 189 188 187 186 187 192 197 198 200 202 199
34 39 36 36 30 19 10 23 55 91 190 187 183 190 196 191 187 186 182 183 188 190 194 196 192 198 205 201 203 206 200 194 191 190 194 197 197 197 198 201 206 209 213 219 225 223 213 209 216 214 193 170 147 131 132 136 124 113 107 95 94 100 100 142 156 148 169 186 199 201 199 197 193 190 189 188 188 188 187 187 188 189 193 198 202 206 205 200
34 39 36 34 31 26 24 41 71 91 160 164 153 147 157 163 164 166 165 168 173 173 175 181 171 166 174 181 195 202 194 188 182 175 180 186 189 194 198 203 209 207 205 209 217 221 215 212 219 223 222 226 224 200 175 164 145 122 96 53 67 87 62 45 96 109 131 154 143 191 196 198 198 196 195 193 192 192 190 189 191 192 195 199 204 206 206 205
29 37 38 32 32 33 32 40 60 83 112 122 115 109 114 120 125 133 137 140 152 153 150 158 159 152 144 133 150 176 176 179 177 169 171 174 175 183 188 188 196 201 200 204 211 219 218 209 208 213 216 219 219 209 202 208 213 226 247 255 255 276 299 305 305 310 308 290 273 218 206 202 202 201 199 197 196 197 195 194 195 198 201 204 206 208 209 210
21 31 38 32 32 36 35 40 57 73 82 87 88 89 89 87 96 118 117 107 117 132 129 126 128 133 149 156 153 149 146 157 164 162 168 171 170 176 179 174 177 183 187 197 205 211 216 212 206 205 207 210 213 210 210 222 235 245 243 238 240 255 268 276 279 281 281 276 267 245 229 220 213 207 202 199 198 198 199 199 200 203 206 208 209 211 213 214